Location: Rokycany
(49.7330°N, 13.6000°E)
Time: 02:00:05
(UTC+01:00)

ISS - Visible Passes

Search period start: 01 December 2023 00:00
Search period end: 11 December 2023 00:00
Orbit: 416 x 417 km, 51.6° (Epoch: 30 November)

Date Brightness Start Highest point End Pass type
(mag) Time Alt. Az. Time Alt. Az. Time Alt. Az.
01 Dec -3.0 18:17:46 10° WNW 18:21:01 46° SSW 18:21:30 42° S visible
02 Dec -3.4 17:29:17 10° WNW 17:32:37 66° SSW 17:35:25 14° ESE visible
02 Dec -0.8 19:06:48 10° W 19:08:21 15° SW 19:08:21 15° SW visible
03 Dec -3.7 16:40:47 10° WNW 16:44:08 87° SSW 16:47:30 10° ESE visible
03 Dec -1.5 18:17:51 10° W 18:20:34 23° SW 18:22:26 15° S visible
04 Dec -2.1 17:29:06 10° W 17:32:10 33° SSW 17:35:13 10° SSE visible
05 Dec -2.7 16:40:24 10° WNW 16:43:40 49° SSW 16:46:55 10° SE visible
05 Dec -0.4 18:18:56 10° WSW 18:19:45 11° SW 18:20:34 10° SSW visible
06 Dec -0.7 17:29:09 10° W 17:31:21 17° SW 17:33:33 10° S visible
07 Dec -1.1 16:40:03 10° W 16:42:50 24° SW 16:45:37 10° SSE visible
09 Dec -0.1 16:40:25 10° WSW 16:41:39 12° SW 16:42:52 10° SSW visible
